Location: *
(44.1392°N, 4.8079°E)
Time: 08:04:36
(UTC+00:00)

Cosmos 1633 - Pass Details

Date: 21 June 2021
Orbit: 461 x 476 km, 82.5° (Epoch: 31 July)

Event Time Altitude Azimuth Distance (km) Brightness Sun altitude
Exits shadow 01:58:08 25° 256° (WSW) 975 3.7 -15.6°
Maximum altitude 01:59:04 29° 285° (WNW) 887 3.7 -15.5°
Drops below altitude 10° 02:02:12 10° 347° (NNW) 1,624 5.8 -15.2°
Sets 02:04:29 0° 359° (N) 2,507 7.1 -15.0°
